Time,TemperatureF,DewpointF,PressureIn,WindDirection,WindDirectionDegrees,WindSpeedMPH,WindSpeedGustMPH,Humidity,HourlyPrecipIn,Conditions,Clouds,dailyrainin,SolarRadiationWatts/m^2,SoftwareType,DateUTC
2013-04-30 00:09:00,48.3,14.0,29.52,North,360,1.0,1.0,25,0.00,,,0.00,0,weatherlink.com 1.10,2013-04-30 06:09:00,
2013-04-30 00:24:00,47.8,14.0,29.52,North,360,0.0,2.0,26,0.00,,,0.00,0,weatherlink.com 1.10,2013-04-30 06:24:00,
2013-04-30 00:39:00,47.2,14.0,29.52,North,360,0.0,2.0,26,0.00,,,0.00,0,weatherlink.com 1.10,2013-04-30 06:39:00,
2013-04-30 00:54:00,45.7,14.0,29.52,North,360,1.0,2.0,28,0.00,,,0.00,0,weatherlink.com 1.10,2013-04-30 06:54:00,
2013-04-30 01:09:00,45.6,14.0,29.52,North,360,1.0,2.0,28,0.00,,,0.00,0,weatherlink.com 1.10,2013-04-30 07:09:00,
2013-04-30 01:24:00,44.9,14.0,29.51,North,360,1.0,2.0,29,0.00,,,0.00,0,weatherlink.com 1.10,2013-04-30 07:24:00,
2013-04-30 01:39:00,45.6,14.0,29.51,North,360,1.0,2.0,28,0.00,,,0.00,0,weatherlink.com 1.10,2013-04-30 07:39:00,
2013-04-30 01:54:00,45.4,15.0,29.51,North,360,1.0,3.0,29,0.00,,,0.00,0,weatherlink.com 1.10,2013-04-30 07:54:00,
2013-04-30 02:09:00,45.9,14.0,29.51,North,360,0.0,1.0,28,0.00,,,0.00,0,weatherlink.com 1.10,2013-04-30 08:09:00,
2013-04-30 02:24:00,47.0,14.0,29.50,North,360,0.0,0.0,27,0.00,,,0.00,0,weatherlink.com 1.10,2013-04-30 08:24:00,
2013-04-30 02:39:00,47.3,14.0,29.50,North,360,0.0,0.0,26,0.00,,,0.00,0,weatherlink.com 1.10,2013-04-30 08:39:00,
2013-04-30 02:54:00,48.6,14.0,29.50,North,360,0.0,3.0,25,0.00,,,0.00,0,weatherlink.com 1.10,2013-04-30 08:54:00,
2013-04-30 03:09:00,47.2,14.0,29.50,North,360,0.0,1.0,26,0.00,,,0.00,0,weatherlink.com 1.10,2013-04-30 09:09:00,
2013-04-30 03:24:00,46.4,14.0,29.49,North,360,0.0,2.0,27,0.00,,,0.00,0,weatherlink.com 1.10,2013-04-30 09:24:00,
2013-04-30 03:39:00,45.3,14.0,29.49,North,360,0.0,2.0,28,0.00,,,0.00,0,weatherlink.com 1.10,2013-04-30 09:39:00,
2013-04-30 03:54:00,45.3,14.0,29.48,North,360,0.0,2.0,28,0.00,,,0.00,0,weatherlink.com 1.10,2013-04-30 09:54:00,
2013-04-30 04:09:00,45.2,14.0,29.49,North,360,1.0,2.0,28,0.00,,,0.00,0,weatherlink.com 1.10,2013-04-30 10:09:00,
2013-04-30 04:24:00,44.9,13.0,29.49,North,360,0.0,2.0,28,0.00,,,0.00,0,weatherlink.com 1.10,2013-04-30 10:24:00,
2013-04-30 04:39:00,44.8,14.0,29.49,North,360,1.0,2.0,29,0.00,,,0.00,0,weatherlink.com 1.10,2013-04-30 10:39:00,
2013-04-30 04:54:00,45.7,14.0,29.48,North,360,0.0,2.0,28,0.00,,,0.00,0,weatherlink.com 1.10,2013-04-30 10:54:00,
2013-04-30 05:09:00,45.3,14.0,29.49,North,360,0.0,2.0,28,0.00,,,0.00,0,weatherlink.com 1.10,2013-04-30 11:09:00,
2013-04-30 05:24:00,44.3,15.0,29.49,North,360,0.0,2.0,30,0.00,,,0.00,0,weatherlink.com 1.10,2013-04-30 11:24:00,
2013-04-30 05:39:00,44.6,15.0,29.50,North,360,1.0,2.0,30,0.00,,,0.00,0,weatherlink.com 1.10,2013-04-30 11:39:00,
2013-04-30 05:54:00,44.7,14.0,29.50,North,360,1.0,2.0,29,0.00,,,0.00,0,weatherlink.com 1.10,2013-04-30 11:54:00,
2013-04-30 06:09:00,44.9,14.0,29.50,North,360,0.0,2.0,29,0.00,,,0.00,0,weatherlink.com 1.10,2013-04-30 12:09:00,
2013-04-30 06:24:00,44.4,15.0,29.51,North,360,1.0,2.0,31,0.00,,,0.00,9,weatherlink.com 1.10,2013-04-30 12:24:00,
2013-04-30 06:39:00,44.1,16.0,29.51,North,360,0.0,2.0,32,0.00,,,0.00,14,weatherlink.com 1.10,2013-04-30 12:39:00,
2013-04-30 06:54:00,45.9,16.0,29.51,North,360,0.0,1.0,30,0.00,,,0.00,23,weatherlink.com 1.10,2013-04-30 12:54:00,
2013-04-30 07:09:00,46.4,15.0,29.51,North,360,1.0,2.0,28,0.00,,,0.00,26,weatherlink.com 1.10,2013-04-30 13:09:00,
2013-04-30 07:24:00,47.3,19.0,29.51,North,360,0.0,2.0,32,0.00,,,0.00,35,weatherlink.com 1.10,2013-04-30 13:24:00,
2013-04-30 07:39:00,48.2,19.0,29.52,North,360,0.0,1.0,31,0.00,,,0.00,39,weatherlink.com 1.10,2013-04-30 13:39:00,
2013-04-30 07:54:00,49.7,17.0,29.52,North,360,0.0,2.0,27,0.00,,,0.00,44,weatherlink.com 1.10,2013-04-30 13:54:00,
2013-04-30 08:10:00,50.9,17.0,29.52,West,263,0.0,4.0,26,0.00,,,0.00,58,weatherlink.com 1.10,2013-04-30 14:10:00,
2013-04-30 08:25:00,52.3,17.0,29.52,West,267,0.0,6.0,25,0.00,,,0.00,165,weatherlink.com 1.10,2013-04-30 14:25:00,
2013-04-30 08:40:00,53.7,18.0,29.52,WSW,248,1.0,4.0,25,0.00,,,0.00,424,weatherlink.com 1.10,2013-04-30 14:40:00,
2013-04-30 08:55:00,54.2,17.0,29.52,WSW,244,1.0,4.0,23,0.00,,,0.00,436,weatherlink.com 1.10,2013-04-30 14:55:00,
2013-04-30 09:10:00,55.2,20.0,29.52,West,267,0.0,3.0,25,0.00,,,0.00,417,weatherlink.com 1.10,2013-04-30 15:10:00,
2013-04-30 09:25:00,56.9,20.0,29.52,West,262,4.0,4.0,24,0.00,,,0.00,612,weatherlink.com 1.10,2013-04-30 15:25:00,
2013-04-30 09:40:00,58.2,20.0,29.51,SW,232,3.0,10.0,23,0.00,,,0.00,652,weatherlink.com 1.10,2013-04-30 15:40:00,
2013-04-30 09:55:00,59.0,20.0,29.52,NW,310,1.0,6.0,22,0.00,,,0.00,710,weatherlink.com 1.10,2013-04-30 15:55:00,
2013-04-30 10:10:00,59.6,19.0,29.52,SW,226,2.0,7.0,21,0.00,,,0.00,772,weatherlink.com 1.10,2013-04-30 16:10:00,
2013-04-30 10:25:00,60.6,20.0,29.52,West,269,2.0,9.0,21,0.00,,,0.00,823,weatherlink.com 1.10,2013-04-30 16:25:00,
2013-04-30 10:40:00,61.2,20.0,29.52,NW,310,2.0,8.0,20,0.00,,,0.00,896,weatherlink.com 1.10,2013-04-30 16:40:00,
2013-04-30 10:55:00,61.0,21.0,29.52,WSW,238,2.0,5.0,21,0.00,,,0.00,993,weatherlink.com 1.10,2013-04-30 16:55:00,
2013-04-30 11:10:00,60.8,20.0,29.52,NW,321,3.0,7.0,21,0.00,,,0.00,454,weatherlink.com 1.10,2013-04-30 17:10:00,
2013-04-30 11:25:00,61.1,20.0,29.51,WSW,251,1.0,8.0,20,0.00,,,0.00,942,weatherlink.com 1.10,2013-04-30 17:25:00,
2013-04-30 11:40:00,63.6,20.0,29.49,West,265,3.0,8.0,19,0.00,,,0.00,1042,weatherlink.com 1.10,2013-04-30 17:40:00,
2013-04-30 11:55:00,65.4,21.0,29.48,NW,305,2.0,5.0,18,0.00,,,0.00,784,weatherlink.com 1.10,2013-04-30 17:55:00,
2013-04-30 12:10:00,64.3,20.0,29.48,NW,309,2.0,9.0,18,0.00,,,0.00,916,weatherlink.com 1.10,2013-04-30 18:10:00,
2013-04-30 12:25:00,64.9,20.0,29.47,WSW,254,4.0,7.0,18,0.00,,,0.00,1072,weatherlink.com 1.10,2013-04-30 18:25:00,
2013-04-30 12:41:00,66.1,20.0,29.46,West,259,2.0,6.0,17,0.00,,,0.00,1092,weatherlink.com 1.10,2013-04-30 18:41:00,
2013-04-30 12:56:00,68.8,21.0,29.45,WSW,252,3.0,8.0,16,0.00,,,0.00,1051,weatherlink.com 1.10,2013-04-30 18:56:00,
2013-04-30 13:11:00,68.8,21.0,29.45,WNW,284,4.0,9.0,16,0.00,,,0.00,1063,weatherlink.com 1.10,2013-04-30 19:11:00,
2013-04-30 13:26:00,67.6,17.0,29.45,West,259,7.0,10.0,14,0.00,,,0.00,1049,weatherlink.com 1.10,2013-04-30 19:26:00,
2013-04-30 13:41:00,68.4,19.0,29.44,WNW,290,4.0,9.0,15,0.00,,,0.00,1056,weatherlink.com 1.10,2013-04-30 19:41:00,
2013-04-30 13:56:00,66.1,18.0,29.45,SW,229,4.0,12.0,16,0.00,,,0.00,1051,weatherlink.com 1.10,2013-04-30 19:56:00,
2013-04-30 14:11:00,67.7,18.0,29.44,WSW,250,6.0,12.0,15,0.00,,,0.00,819,weatherlink.com 1.10,2013-04-30 20:11:00,
2013-04-30 14:26:00,66.8,18.0,29.45,SW,225,4.0,16.0,15,0.00,,,0.00,1048,weatherlink.com 1.10,2013-04-30 20:26:00,
2013-04-30 14:41:00,68.5,17.0,29.44,WNW,284,7.0,12.0,14,0.00,,,0.00,958,weatherlink.com 1.10,2013-04-30 20:41:00,
2013-04-30 14:56:00,69.6,20.0,29.43,West,268,3.0,12.0,15,0.00,,,0.00,930,weatherlink.com 1.10,2013-04-30 20:56:00,
2013-04-30 15:11:00,69.5,16.0,29.43,SW,221,7.0,10.0,13,0.00,,,0.00,904,weatherlink.com 1.10,2013-04-30 21:11:00,
2013-04-30 15:26:00,68.5,16.0,29.43,SW,221,4.0,12.0,13,0.00,,,0.00,891,weatherlink.com 1.10,2013-04-30 21:26:00,
2013-04-30 15:41:00,70.0,19.0,29.42,WNW,290,6.0,9.0,14,0.00,,,0.00,863,weatherlink.com 1.10,2013-04-30 21:41:00,
2013-04-30 15:56:00,68.6,16.0,29.42,WSW,251,5.0,11.0,13,0.00,,,0.00,802,weatherlink.com 1.10,2013-04-30 21:56:00,
2013-04-30 16:11:00,68.8,18.0,29.41,WNW,282,4.0,9.0,14,0.00,,,0.00,740,weatherlink.com 1.10,2013-04-30 22:11:00,
2013-04-30 16:26:00,68.6,16.0,29.42,WNW,288,2.0,11.0,13,0.00,,,0.00,714,weatherlink.com 1.10,2013-04-30 22:26:00,
2013-04-30 16:41:00,67.6,15.0,29.42,NW,306,8.0,10.0,13,0.00,,,0.00,666,weatherlink.com 1.10,2013-04-30 22:41:00,
2013-04-30 16:56:00,67.7,15.0,29.42,West,273,2.0,11.0,13,0.00,,,0.00,540,weatherlink.com 1.10,2013-04-30 22:56:00,
2013-04-30 17:11:00,67.6,15.0,29.41,WNW,294,2.0,12.0,13,0.00,,,0.00,563,weatherlink.com 1.10,2013-04-30 23:11:00,
2013-04-30 17:26:00,65.9,14.0,29.42,NW,309,3.0,13.0,13,0.00,,,0.00,512,weatherlink.com 1.10,2013-04-30 23:26:00,
2013-04-30 17:41:00,66.9,16.0,29.41,NW,304,3.0,12.0,14,0.00,,,0.00,462,weatherlink.com 1.10,2013-04-30 23:41:00,
2013-04-30 17:56:00,65.4,13.0,29.42,West,276,6.0,15.0,13,0.00,,,0.00,401,weatherlink.com 1.10,2013-04-30 23:56:00,
2013-04-30 18:11:00,64.6,14.0,29.41,West,269,2.0,11.0,14,0.00,,,0.00,322,weatherlink.com 1.10,2013-05-01 00:11:00,
2013-04-30 18:26:00,63.4,13.0,29.42,WNW,290,2.0,11.0,14,0.00,,,0.00,258,weatherlink.com 1.10,2013-05-01 00:26:00,
2013-04-30 18:41:00,63.3,13.0,29.42,NNW,333,3.0,10.0,14,0.00,,,0.00,69,weatherlink.com 1.10,2013-05-01 00:41:00,
2013-04-30 18:56:00,61.7,12.0,29.41,SW,218,8.0,8.0,14,0.00,,,0.00,23,weatherlink.com 1.10,2013-05-01 00:56:00,
2013-04-30 19:11:00,60.4,12.0,29.42,WNW,302,2.0,8.0,15,0.00,,,0.00,18,weatherlink.com 1.10,2013-05-01 01:11:00,
2013-04-30 19:26:00,59.3,11.0,29.42,West,261,1.0,6.0,15,0.00,,,0.00,16,weatherlink.com 1.10,2013-05-01 01:26:00,
2013-04-30 19:41:00,58.4,11.0,29.43,WNW,292,2.0,6.0,15,0.00,,,0.00,5,weatherlink.com 1.10,2013-05-01 01:41:00,
2013-04-30 19:56:00,58.9,11.0,29.43,WSW,246,2.0,7.0,15,0.00,,,0.00,0,weatherlink.com 1.10,2013-05-01 01:56:00,
2013-04-30 20:11:00,58.0,10.0,29.43,North,360,1.0,6.0,15,0.00,,,0.00,0,weatherlink.com 1.10,2013-05-01 02:11:00,
2013-04-30 20:26:00,57.9,10.0,29.44,North,360,1.0,6.0,15,0.00,,,0.00,0,weatherlink.com 1.10,2013-05-01 02:26:00,
2013-04-30 20:41:00,57.6,10.0,29.44,North,360,1.0,7.0,15,0.00,,,0.00,0,weatherlink.com 1.10,2013-05-01 02:41:00,
2013-04-30 20:56:00,57.3,13.0,29.45,North,360,1.0,5.0,17,0.00,,,0.00,0,weatherlink.com 1.10,2013-05-01 02:56:00,
2013-04-30 21:11:00,57.1,12.0,29.45,North,360,2.0,7.0,17,0.00,,,0.00,0,weatherlink.com 1.10,2013-05-01 03:11:00,
2013-04-30 21:26:00,56.8,12.0,29.45,North,360,0.0,5.0,17,0.00,,,0.00,0,weatherlink.com 1.10,2013-05-01 03:26:00,
2013-04-30 21:41:00,56.4,12.0,29.46,North,360,0.0,7.0,17,0.00,,,0.00,0,weatherlink.com 1.10,2013-05-01 03:41:00,
2013-04-30 21:56:00,55.9,13.0,29.46,North,360,1.0,6.0,18,0.00,,,0.00,0,weatherlink.com 1.10,2013-05-01 03:56:00,
2013-04-30 22:11:00,55.7,13.0,29.46,North,360,2.0,7.0,18,0.00,,,0.00,0,weatherlink.com 1.10,2013-05-01 04:11:00,
2013-04-30 22:26:00,55.4,11.0,29.46,North,360,1.0,7.0,17,0.00,,,0.00,0,weatherlink.com 1.10,2013-05-01 04:26:00,
2013-04-30 22:41:00,55.1,11.0,29.46,North,360,2.0,7.0,17,0.00,,,0.00,0,weatherlink.com 1.10,2013-05-01 04:41:00,
2013-04-30 22:56:00,54.5,12.0,29.46,North,360,3.0,5.0,18,0.00,,,0.00,0,weatherlink.com 1.10,2013-05-01 04:56:00,
2013-04-30 23:11:00,54.0,11.0,29.46,North,360,2.0,8.0,18,0.00,,,0.00,0,weatherlink.com 1.10,2013-05-01 05:11:00,
2013-04-30 23:26:00,53.6,11.0,29.47,North,360,1.0,5.0,18,0.00,,,0.00,0,weatherlink.com 1.10,2013-05-01 05:26:00,
2013-04-30 23:41:00,53.0,10.0,29.47,North,360,1.0,6.0,18,0.00,,,0.00,0,weatherlink.com 1.10,2013-05-01 05:41:00,
2013-04-30 23:56:00,52.9,10.0,29.47,North,360,1.0,5.0,18,0.00,,,0.00,0,weatherlink.com 1.10,2013-05-01 05:56:00,